Home   Weather   Egypt   Cairo   Past weeks
Flag for Egypt

Past Weather in Cairo, Egypt — Yesterday and Last 2 Weeks

Currently: 86 °F. Scattered clouds. (Weather station: Cairo Airport, Egypt). See more current weather

Past Weather in Cairo — Graph

°F

Cairo Temperature Yesterday

Maximum temperature yesterday: 91 °F (at 3:30 pm)
Minimum temperature yesterday: 79 °F (at 3:00 am)
Average temperature yesterday: 84 °F

High & Low Weather Summary for the Past Weeks

 TemperatureHumidityPressure
High97 °F (Jul 29, 2:00 pm)89% (Aug 1, 3:00 am)29.80 "Hg (Aug 1, 3:00 am)
Low77 °F (Jul 30, 4:30 am)19% (Jul 29, 4:30 pm)29.65 "Hg (Jul 31, 3:00 pm)
Average85 °F55%29.74 "Hg
* Reported Jul 29 10:00 am — Aug 13 10:30 am, Cairo. Weather by CustomWeather, © 2022

Note: Actual official high and low records may vary slightly from our data, if they occured in-between our weather recording intervals... More about our weather records

Cairo Weather History for the Previous 24 Hours

Scroll right to see more
 ConditionsComfort  
Time TempWeatherWind HumidityBarometerVisibility
10:30 am
Sat, Aug 13
86 °FScattered clouds.6 mph49%29.80 "HgN/A
10:00 am84 °FScattered clouds.8 mph55%29.80 "HgN/A
9:30 am82 °FScattered clouds.7 mph58%29.80 "HgN/A
9:00 am82 °FScattered clouds.6 mph62%29.80 "HgN/A
8:30 am81 °FScattered clouds.7 mph70%29.80 "HgN/A
8:00 am79 °FScattered clouds.7 mph74%29.80 "HgN/A
7:30 am79 °FClear.6 mph74%29.80 "Hg4 mi
7:00 am77 °FClear.6 mph79%29.80 "Hg4 mi
6:30 am77 °FClear.5 mph83%29.80 "Hg4 mi
6:00 am77 °FClear.5 mph83%29.80 "Hg4 mi
5:30 am77 °FSunny.6 mph83%29.77 "Hg10 mi
5:00 am77 °FClear.5 mph83%29.77 "Hg10 mi
4:30 am77 °FClear.3 mph83%29.80 "Hg10 mi
4:00 am79 °FClear.7 mph74%29.77 "Hg10 mi
3:30 am79 °FClear.6 mph74%29.77 "Hg10 mi
3:00 am79 °FClear.5 mph74%29.80 "Hg10 mi
1:00 am79 °FClear.6 mph74%29.80 "Hg10 mi
12:30 am79 °FClear.6 mph74%29.80 "Hg10 mi
12:00 am81 °FClear.6 mph70%29.80 "Hg10 mi
11:00 pm
Fri, Aug 12
81 °FClear.12 mph70%29.80 "Hg10 mi
10:30 pm82 °FClear.12 mph66%29.80 "Hg10 mi
10:00 pm82 °FClear.9 mph62%29.80 "Hg10 mi
9:00 pm84 °FClear.14 mph58%29.80 "Hg10 mi
8:30 pm84 °FClear.14 mph55%29.80 "Hg10 mi
8:00 pm86 °FClear.9 mph49%29.77 "Hg10 mi
7:00 pm88 °FClear.8 mph40%29.77 "Hg10 mi
6:30 pm88 °FSunny.9 mph43%29.77 "Hg10 mi
6:00 pm88 °FSunny.10 mph40%29.77 "Hg10 mi
5:30 pm90 °FSunny.9 mph38%29.74 "Hg10 mi
5:00 pm90 °FSunny.9 mph33%29.74 "Hg10 mi
4:30 pm90 °FSunny.10 mph36%29.74 "Hg10 mi
4:00 pm91 °FSunny.8 mph36%29.74 "Hg10 mi
3:30 pm91 °FSunny.5 mph36%29.74 "Hg10 mi
3:00 pm90 °FSunny.8 mph38%29.74 "Hg10 mi
2:30 pm90 °FSunny.No wind38%29.74 "Hg10 mi
1:30 pm90 °FSunny.10 mph36%29.77 "Hg10 mi
1:00 pm90 °FSunny.8 mph36%29.77 "Hg10 mi
12:00 pm88 °FSunny.8 mph40%29.80 "Hg10 mi
11:00 am86 °FSunny.6 mph49%29.80 "Hg10 mi
Weather by CustomWeather, © 2022

See weather overview